[[{"header":{"parameterUnit":"m.s-1","parameterCategory":1,"la1":30.2991,"la2":30.254,"lo1":-89.0895,"lo2":-89.0444,"dy":0.0017,"dx":0.0017,"nx":28,"ny":28,"refTime":"2023-11-11T09:00:00:Z","depth":0,"parameterNumber":2,"parameterNumberName":"U-component_of_WINDS"},"data":[0,0,0,0,0,0,0,0,0,0,0,0,0,0,0,0,0,0,0,0,0,0,0,0,0,0,0,0,0,0,0,0,0,0,0,0,0,0,0,0,0,0,0,0,0,0,0,0,0,0,0,0,0,0,0,0,0,0,-1.5411,-1.5412,0,-1.545,-1.545,-1.545,-1.5422,-1.542,-1.5419,-1.5418,-1.5457,-1.5459,-1.5461,0,0,0,0,0,0,0,0,0,0,0,0,0,-1.5312,-1.5314,-1.5411,-1.5412,-1.5412,-1.545,-1.545,-1.5451,-1.5422,-1.542,-1.5419,-1.5417,-1.5456,-1.5459,-1.5461,0,0,0,0,0,0,0,0,0,0,0,0,0,-1.5353,-1.5315,-1.5411,-1.5402,-1.5402,-1.5449,-1.545,-1.5451,-1.5422,-1.542,-1.5418,-1.5417,-1.5455,-1.5458,-1.5462,-1.552,0,0,-1.5472,-1.5473,0,0,0,0,0,0,0,0,-1.5351,-1.5357,-1.5403,-1.5403,-1.5403,-1.5429,-1.5429,-1.5474,-1.5423,-1.5414,-1.5418,-1.5416,-1.5449,-1.5453,-1.5464,-1.5522,-1.5523,-1.5472,-1.5474,-1.5476,-1.5476,0,0,0,0,0,0,0,-1.5348,-1.5355,-1.5426,-1.5404,-1.5403,-1.5396,-1.54,-1.5438,-1.5442,-1.5415,-1.5413,-1.5418,-1.5448,-1.5461,-1.5465,-1.5524,-1.5472,-1.5475,-1.5477,-1.5478,-1.5632,-1.5634,0,0,0,0,0,0,-1.5346,-1.5353,-1.5425,-1.5427,-1.5372,-1.54,-1.5404,-1.5422,-1.5441,-1.5442,-1.5419,-1.5416,-1.5456,-1.5461,-1.5466,-1.5536,-1.5475,-1.5479,-1.548,-1.563,-1.5632,-1.5634,0,0,0,0,0,0,-1.5344,-1.5353,-1.5424,-1.539,-1.5398,-1.5403,-1.5424,-1.5424,-1.5436,-1.5445,-1.5445,-1.5432,-1.5455,-1.5461,-1.5507,-1.5537,-1.548,-1.5483,-1.5627,-1.563,-1.5633,-1.5676,0,0,0,0,0,0,-1.5342,-1.5353,-1.5375,-1.5391,-1.54,-1.5464,-1.5426,-1.5426,-1.5442,-1.5439,-1.5456,-1.5457,-1.5454,-1.5502,-1.551,-1.5541,-1.5486,-1.5625,-1.5629,-1.5632,-1.5672,-1.5681,-1.5688,0,0,0,0,0,-1.5338,-1.5385,-1.5376,-1.5385,-1.5428,-1.5466,-1.5471,-1.5467,-1.5445,-1.5467,-1.5473,-1.5457,-1.5532,-1.5507,-1.5516,-1.5548,-1.5623,-1.5627,-1.5632,-1.5669,-1.5679,-1.5688,0,0,0,0,0,0,-1.5373,-1.5387,-1.5377,-1.5431,-1.5447,-1.5461,-1.5489,-1.5477,-1.5501,-1.5496,-1.5489,-1.5493,-1.5541,-1.5549,-1.5521,-1.5605,-1.5574,-1.5581,-1.5599,-1.5609,-1.5616,-1.5614,-1.5488,0,0,0,0,0,-1.5387,-1.5417,-1.5427,-1.5473,-1.5482,-1.5484,-1.5501,-1.5496,-1.5512,-1.5519,-1.5528,-1.5545,-1.5572,-1.559,-1.5616,-1.5673,-1.5676,-1.5699,-1.5707,-1.5713,-1.5719,-1.575,-1.5761,-1.565,-1.565,-1.565,0,0,-1.5416,-1.5427,-1.5446,-1.5481,-1.5493,-1.5524,-1.5491,-1.5524,-1.5547,-1.5524,-1.5568,-1.5575,-1.5593,-1.5645,-1.5668,-1.5653,-1.575,-1.5719,-1.5724,-1.5727,-1.5756,-1.5767,-1.5776,-1.5653,-1.5652,-1.5652,0,0,-1.5485,-1.5496,-1.5536,-1.5549,-1.5568,-1.557,-1.5579,-1.5595,-1.5598,-1.5642,-1.5626,-1.5652,-1.57,-1.5714,-1.5727,-1.5801,-1.5788,-1.5809,-1.585,-1.5881,-1.5889,-1.5897,-1.5924,-1.5934,-1.5815,-1.5816,-1.5816,0,-1.5519,-1.5565,-1.5558,-1.5594,-1.561,-1.559,-1.5631,-1.5643,-1.567,-1.5681,-1.5663,-1.5723,-1.5734,-1.5788,-1.5807,-1.5818,-1.5829,-1.5808,-1.5889,-1.5896,-1.5903,-1.5929,-1.594,-1.5818,-1.5818,-1.5818,-1.5817,0,-1.5606,-1.5638,-1.5668,-1.5695,-1.5713,-1.5751,-1.5751,-1.577,-1.5763,-1.5766,-1.5811,-1.5823,-1.5852,-1.5864,-1.5857,-1.5918,-1.5908,-1.5889,-1.5858,-1.5917,-1.5941,-1.5951,-1.5822,-1.5821,-1.582,-1.582,0,0,-1.5699,-1.5721,-1.5732,-1.5744,-1.5764,-1.5789,-1.5825,-1.5853,-1.5871,-1.5889,-1.592,-1.596,-1.5944,-1.5959,-1.5953,-1.598,-1.6039,-1.5958,-1.5958,-1.5974,-1.6107,-1.6122,-1.6133,-1.6029,-1.6031,-1.6032,-1.6106,0,-1.577,-1.5835,-1.583,-1.5891,-1.5921,-1.5902,-1.5934,-1.595,-1.5953,-1.5979,-1.5982,-1.6012,-1.5987,-1.5996,-1.6021,-1.6026,-1.6066,-1.6021,-1.6059,-1.606,-1.6056,-1.6146,-1.6162,-1.6231,-1.6115,-1.6117,-1.6118,0,-1.5861,-1.5884,-1.5948,-1.5963,-1.5976,-1.6005,-1.603,-1.6054,-1.6071,-1.6072,-1.6089,-1.6079,-1.6116,-1.6083,-1.6134,-1.6104,-1.6119,-1.6123,-1.6126,-1.613,-1.6094,-1.6154,-1.6252,-1.6263,-1.6133,-1.6132,-1.613,0,-1.5924,-1.597,-1.6015,-1.6025,-1.6044,-1.6065,-1.6074,-1.6088,-1.6106,-1.6127,-1.6138,-1.6164,-1.6178,-1.6198,-1.6195,-1.6171,-1.6248,-1.6214,-1.625,-1.625,-1.6268,-1.6267,-1.6371,-1.6275,-1.6275,-1.6275,-1.6275,0,-1.6005,-1.6045,-1.6043,-1.6071,-1.6116,-1.6109,-1.6153,-1.6159,-1.6173,-1.6201,-1.6186,-1.6213,-1.6207,-1.6234,-1.6232,-1.6275,-1.6281,-1.6283,-1.6282,-1.6285,-1.6285,-1.6296,-1.6292,-1.6278,-1.6277,-1.6277,-1.6276,0,-1.6083,-1.6083,-1.6131,-1.6145,-1.6149,-1.6181,-1.6193,-1.6219,-1.6221,-1.6257,-1.6265,-1.6268,-1.6299,-1.6298,-1.6332,-1.6331,-1.6384,-1.6377,-1.6379,-1.6378,-1.6414,-1.6411,-1.653,-1.6545,-1.6439,-1.644,-1.644,0,-1.6135,-1.6166,-1.6183,-1.6201,-1.6211,-1.624,-1.6258,-1.6252,-1.6271,-1.6292,-1.6316,-1.6345,-1.6368,-1.6418,-1.6424,-1.645,-1.6444,-1.6484,-1.6448,-1.645,-1.6446,-1.6445,-1.6448,-1.6491,-1.6492,-1.6493,-1.6494,0,-1.6228,-1.6226,-1.6252,-1.6278,-1.63,-1.632,-1.6338,-1.6354,-1.635,-1.6372,-1.6403,-1.6421,-1.6457,-1.6486,-1.6511,-1.652,-1.6507,-1.6505,-1.6515,-1.6519,-1.6519,-1.6521,-1.6399,-1.6503,-1.6502,-1.6501,-1.6501,-1.6501,-1.6295,-1.6322,-1.6338,-1.6368,-1.6381,-1.6399,-1.6424,-1.6429,-1.6455,-1.6484,-1.6479,-1.6514,-1.653,-1.6562,-1.6573,-1.6601,-1.6587,-1.6601,-1.6604,-1.6608,-1.6613,-1.6514,-1.6605,-1.6605,-1.6605,-1.6604,-1.6604,0,-1.6388,-1.6398,-1.6425,-1.6451,-1.6474,-1.646,-1.6479,-1.6499,-1.6531,-1.6547,-1.657,-1.6606,-1.6634,-1.6642,-1.6669,-1.669,-1.6684,-1.6697,-1.6696,-1.6698,-1.6623,-1.6613,-1.6701,-1.6701,-1.6701,-1.6701,-1.6701,-1.6701,-1.6439,-1.6484,-1.6485,-1.6536,-1.6544,-1.6579,-1.6592,-1.6608,-1.6621,-1.6662,-1.6686,-1.669,-1.6703,-1.6731,-1.6756,-1.6757,-1.6769,-1.6784,-1.6783,-1.6713,-1.6704,-1.6694,-1.6684,-1.6786,-1.6786,-1.6856,-1.6857,-1.6857]},{"header":{"parameterUnit":"m.s-1","parameterCategory":1,"la1":30.2991,"la2":30.254,"lo1":-89.0895,"lo2":-89.0444,"dy":0.0017,"dx":0.0017,"nx":28,"ny":28,"refTime":"2023-11-11T09:00:00:Z","depth":0,"parameterNumber":3,"parameterNumberName":"V-component_of_WINDS"},"data":[0,0,0,0,0,0,0,0,0,0,0,0,0,0,0,0,0,0,0,0,0,0,0,0,0,0,0,0,0,0,0,0,0,0,0,0,0,0,0,0,0,0,0,0,0,0,0,0,0,0,0,0,0,0,0,0,0,0,-4.6892,-4.6892,0,-4.6944,-4.6945,-4.6946,-4.6895,-4.6893,-4.6891,-4.6889,-4.6937,-4.694,-4.6943,0,0,0,0,0,0,0,0,0,0,0,0,0,-4.6742,-4.6745,-4.6892,-4.6892,-4.6893,-4.6944,-4.6945,-4.6946,-4.6895,-4.6893,-4.689,-4.6888,-4.6936,-4.694,-4.6943,0,0,0,0,0,0,0,0,0,0,0,0,0,-4.6802,-4.6746,-4.6892,-4.6874,-4.6873,-4.6944,-4.6945,-4.6946,-4.6896,-4.6893,-4.689,-4.6887,-4.6935,-4.6939,-4.6944,-4.7033,0,0,-4.6958,-4.696,0,0,0,0,0,0,0,0,-4.6798,-4.6807,-4.6876,-4.6876,-4.6875,-4.691,-4.691,-4.6975,-4.6896,-4.6887,-4.6889,-4.6885,-4.693,-4.6935,-4.6951,-4.7035,-4.7037,-4.6959,-4.6962,-4.6964,-4.6965,0,0,0,0,0,0,0,-4.6794,-4.6805,-4.6912,-4.6877,-4.6876,-4.6862,-4.6867,-4.6922,-4.6924,-4.6887,-4.6884,-4.6891,-4.6929,-4.6947,-4.6952,-4.7038,-4.6959,-4.6963,-4.6966,-4.6968,-4.7197,-4.7201,0,0,0,0,0,0,-4.6793,-4.6802,-4.6911,-4.6914,-4.6828,-4.6867,-4.6873,-4.6902,-4.6924,-4.6924,-4.6894,-4.6889,-4.694,-4.6946,-4.6953,-4.7059,-4.6964,-4.6968,-4.6971,-4.7194,-4.7198,-4.7202,0,0,0,0,0,0,-4.679,-4.6803,-4.6909,-4.6857,-4.6869,-4.6873,-4.6905,-4.6904,-4.6922,-4.6929,-4.6928,-4.6912,-4.6938,-4.6947,-4.7014,-4.706,-4.697,-4.6974,-4.719,-4.7195,-4.72,-4.7272,0,0,0,0,0,0,-4.6786,-4.6802,-4.6838,-4.6858,-4.6872,-4.697,-4.6908,-4.6907,-4.6931,-4.6925,-4.6945,-4.6946,-4.6936,-4.7007,-4.7019,-4.7065,-4.6978,-4.7186,-4.7193,-4.7198,-4.7265,-4.7279,-4.729,0,0,0,0,0,-4.6781,-4.6854,-4.684,-4.6853,-4.6917,-4.6973,-4.6981,-4.697,-4.6935,-4.697,-4.6974,-4.6945,-4.7053,-4.7015,-4.7027,-4.7075,-4.7183,-4.7191,-4.7198,-4.726,-4.7276,-4.729,0,0,0,0,0,0,-4.6837,-4.6857,-4.6841,-4.6924,-4.6947,-4.6964,-4.7008,-4.6988,-4.702,-4.7013,-4.6996,-4.7001,-4.7072,-4.708,-4.7037,-4.7163,-4.7112,-4.7123,-4.7155,-4.717,-4.7183,-4.7179,-4.6982,0,0,0,0,0,-4.6859,-4.6905,-4.6919,-4.6991,-4.7004,-4.7004,-4.7028,-4.7018,-4.7041,-4.705,-4.7059,-4.7081,-4.712,-4.7145,-4.7181,-4.7266,-4.7269,-4.7306,-4.7318,-4.7328,-4.7337,-4.7382,-4.7398,-4.7226,-4.7226,-4.7226,0,0,-4.6905,-4.6922,-4.6951,-4.7003,-4.702,-4.7066,-4.7013,-4.7064,-4.7097,-4.7057,-4.7122,-4.7129,-4.7152,-4.7229,-4.7263,-4.7238,-4.7385,-4.7337,-4.7345,-4.7349,-4.7391,-4.7407,-4.7422,-4.7231,-4.723,-4.7229,0,0,-4.7013,-4.7031,-4.7093,-4.7111,-4.7139,-4.7138,-4.7153,-4.7174,-4.7178,-4.7243,-4.7214,-4.7253,-4.732,-4.7338,-4.7355,-4.7471,-4.7446,-4.7483,-4.7547,-4.7591,-4.7605,-4.7617,-4.7657,-4.7672,-4.7492,-4.7492,-4.7492,0,-4.7066,-4.7137,-4.7126,-4.718,-4.7203,-4.7171,-4.7233,-4.7251,-4.7288,-4.7304,-4.7275,-4.736,-4.7373,-4.7453,-4.7481,-4.7497,-4.7512,-4.748,-4.7604,-4.7616,-4.7627,-4.7665,-4.7681,-4.7496,-4.7496,-4.7495,-4.7495,0,-4.7201,-4.725,-4.7296,-4.7336,-4.7364,-4.7421,-4.7418,-4.7447,-4.7435,-4.7437,-4.7503,-4.7518,-4.7557,-4.7575,-4.7562,-4.7653,-4.7637,-4.7607,-4.7556,-4.7648,-4.7684,-4.7698,-4.7502,-4.7501,-4.75,-4.7498,0,0,-4.7344,-4.7378,-4.7396,-4.7413,-4.7441,-4.7478,-4.7534,-4.7574,-4.7599,-4.7625,-4.7671,-4.7729,-4.7702,-4.7722,-4.7711,-4.775,-4.784,-4.7714,-4.7715,-4.7737,-4.7941,-4.7963,-4.7981,-4.7824,-4.7826,-4.7829,-4.7939,0,-4.7453,-4.7552,-4.7545,-4.7637,-4.7682,-4.7653,-4.7701,-4.7722,-4.7726,-4.7763,-4.7765,-4.7807,-4.7768,-4.778,-4.7817,-4.7821,-4.788,-4.7813,-4.7864,-4.7866,-4.7859,-4.8,-4.8023,-4.8127,-4.7953,-4.7955,-4.7957,0,-4.7593,-4.7627,-4.7725,-4.7747,-4.7766,-4.781,-4.7846,-4.7882,-4.7905,-4.7905,-4.7929,-4.7911,-4.7965,-4.7914,-4.7987,-4.7942,-4.7962,-4.7967,-4.7971,-4.7975,-4.7917,-4.8007,-4.8159,-4.8175,-4.7979,-4.7977,-4.7976,0,-4.7688,-4.7758,-4.7826,-4.7842,-4.7869,-4.7901,-4.7913,-4.7934,-4.7959,-4.7989,-4.8005,-4.8041,-4.806,-4.8088,-4.808,-4.8043,-4.8155,-4.8103,-4.8155,-4.8156,-4.818,-4.8178,-4.8337,-4.8194,-4.8193,-4.8193,-4.8193,0,-4.781,-4.7871,-4.787,-4.7911,-4.7978,-4.7968,-4.8034,-4.8042,-4.8061,-4.8102,-4.8078,-4.8117,-4.8104,-4.8142,-4.8136,-4.8198,-4.8206,-4.8207,-4.8204,-4.8209,-4.8209,-4.8222,-4.8214,-4.8197,-4.8196,-4.8195,-4.8195,0,-4.7928,-4.7929,-4.8001,-4.8022,-4.8029,-4.8077,-4.8094,-4.8132,-4.8134,-4.8187,-4.8198,-4.8201,-4.8244,-4.8239,-4.8287,-4.8282,-4.8359,-4.8348,-4.8352,-4.835,-4.8402,-4.8397,-4.8575,-4.8597,-4.8439,-4.8441,-4.8442,0,-4.8005,-4.8052,-4.8079,-4.8106,-4.8121,-4.8165,-4.8191,-4.8182,-4.8209,-4.824,-4.8275,-4.8316,-4.8349,-4.8419,-4.8424,-4.846,-4.8449,-4.8509,-4.8454,-4.8458,-4.845,-4.8447,-4.8452,-4.852,-4.8521,-4.8523,-4.8524,0,-4.8143,-4.8142,-4.8181,-4.8221,-4.8253,-4.8283,-4.8311,-4.8334,-4.8328,-4.8359,-4.8405,-4.843,-4.848,-4.8521,-4.8556,-4.8566,-4.8544,-4.8541,-4.8555,-4.856,-4.8561,-4.8561,-4.8381,-4.8537,-4.8536,-4.8535,-4.8534,-4.8534,-4.8243,-4.8283,-4.8309,-4.8353,-4.8374,-4.84,-4.8438,-4.8445,-4.8483,-4.8525,-4.8517,-4.8568,-4.8589,-4.8633,-4.8647,-4.8686,-4.8664,-4.8684,-4.8689,-4.8694,-4.87,-4.8555,-4.8692,-4.8691,-4.8691,-4.8691,-4.869,0,-4.8379,-4.8395,-4.8436,-4.8477,-4.8511,-4.849,-4.8519,-4.8549,-4.8595,-4.8618,-4.8651,-4.8703,-4.8743,-4.8751,-4.8789,-4.8818,-4.8809,-4.8828,-4.8825,-4.8828,-4.8718,-4.8702,-4.8835,-4.8835,-4.8835,-4.8835,-4.8835,-4.8835,-4.8455,-4.8522,-4.8524,-4.86,-4.8614,-4.8666,-4.8684,-4.8708,-4.8727,-4.8786,-4.882,-4.8826,-4.8843,-4.8882,-4.8917,-4.8918,-4.8933,-4.8956,-4.8954,-4.885,-4.8836,-4.8822,-4.8807,-4.896,-4.896,-4.9061,-4.9062,-4.9062]}]]